Weather in Myrtle Beach

United States     33°42′00″N   78°55′19″W
temp.,
°C
wind,
m/s
gust,
m/s
humid.,
%
clouds,
%
prec.,
mm/h
press.,
hPa
HPBL,
m
18 september, sat
sat1823:00+24nw12875 0.7 101825
02:00+22nne22925 0.7 101745
05:00+22nne269677 0.0 1018171
08:00+22nne27926 0.0 1019215
11:00+29ne3461100 0.0 10191172
14:00+31ese3352100 0.0 10171552
17:00+28se346799 0.1 1016425
20:00+26sse257431 0.2 1017295
19 september, sun
sun1923:00+23ese118969 0.6 101828
02:00+23ene11929 1.6 101816
05:00+22ene229218 0.0 101839
08:00+23ene1287100 0.0 101971
11:00+28ene4662100 0.1 1020946
14:00+30ese574980 0.1 10191504
17:00+29ese5657100 0.0 10181107
20:00+25ese3774100 0.0 1018418
20 september, mon
mon2023:00+25ese3877100 0.0 1019475
02:00+25e3779100 0.0 1019413
05:00+24ene3977100 0.0 1019470
08:00+24ene4981100 0.1 1020574
11:00+27ese5870100 1.1 10211102
14:00+30ese6852100 1.6 10201698
17:00+28e5757100 0.0 10191213
20:00+26e4872100 0.0 1020722
21 september, tue
tue2123:00+24ene3882100 0.1 1021469
02:00+24e3782100 0.1 1020412
05:00+24ene3781100 0.1 1019424
08:00+25ene4978100 0.2 1020559
11:00+25ese5982100 1.1 1020770
14:00+24se51091100 12.3 1019491
17:00+23sse4895100 19.6 1018312
20:00+23ese3797100 25.3 1018283
22 september, wed
wed2223:00+23sse2297100 2.5 101746
02:00+22wsw1196100 3.9 101616
05:00+22nw129887 0.6 101534
08:00+22nnw119663 1.2 101551
11:00+27s127523 2.4 1014464
14:00+25s358487 6.6 1013459
17:00+26s34839 4.1 1011572
20:00+23wnw11934 7.2 101212